Date String (YYYY-MM-DD hh:mm:ss) UTC,Instrument flags,absolute air pressure of the measurement (hPa),sample flow rate (lpm),inlet stack bypass flow (lpm),air temperature of the measurement (°C),ambient temperature measured by the external sensor (°C),aerosol sample conditioner tube jacket temperature (°C),OPC LED temperature (°C),internal box temperature (°C),relative humidity of the measurement (%),span deviation,mass concentration of particles derived from Lorenz-Mie calculation of OPC scattering (μg/m³),mass concentration of particles derived from Lorenz-Mie calculation of OPC scattering (μg/m³),mass concentration of particles derived from Lorenz-Mie calculation of OPC scattering (μg/m³)
DateTimeUTC,F1_M11,P_M11,Q1_M11,Q2_M11,T1_M11,T2_M11,T3_M11,T4_M11,T5_M11,U1_M11,ZSPAN_M11,X0_M11,X2_M11,X1_M11
2024-02-25 01:00:00,SystemResetWarning,0824.9,5.00,000.00,022.3,021.4,000.0,030.6,024.0,06.0,0000.0,0009.59,0002.90,0000.99
2024-02-25 01:01:00,SystemResetWarning,0825.0,5.00,000.00,022.3,021.4,000.0,030.6,024.0,05.9,0000.0,0009.58,0002.92,0001.00
2024-02-25 01:02:00,SystemResetWarning,0825.0,4.99,000.00,022.3,021.4,000.0,030.6,024.0,05.9,0000.0,0009.13,0002.94,0001.00
2024-02-25 01:03:00,SystemResetWarning,0825.0,4.99,000.00,022.3,021.3,000.0,030.6,024.0,05.9,0000.0,0009.11,0002.91,0000.99
2024-02-25 01:04:00,SystemResetWarning,0824.8,5.00,000.00,022.2,021.3,000.0,030.6,023.9,06.0,0000.0,0009.05,0002.87,0001.00
2024-02-25 01:05:00,SystemResetWarning,0825.0,5.00,000.00,022.2,021.3,000.0,030.6,023.9,06.1,0000.0,0008.75,0002.82,0001.00
2024-02-25 01:06:00,SystemResetWarning,0825.0,5.00,000.00,022.2,021.3,000.0,030.6,023.9,05.9,0000.0,0008.48,0002.75,0000.98
2024-02-25 01:07:00,SystemResetWarning,0824.9,5.00,000.00,022.2,021.3,000.0,030.6,023.9,05.8,0000.0,0008.49,0002.77,0000.97
2024-02-25 01:08:00,SystemResetWarning,0825.1,5.01,000.00,022.2,021.3,000.0,030.6,023.9,05.7,0000.0,0008.45,0002.79,0000.96
2024-02-25 01:09:00,SystemResetWarning,0825.2,5.01,000.00,022.2,021.3,000.0,030.6,023.9,05.7,0000.0,0008.37,0002.78,0000.98
2024-02-25 01:10:00,SystemResetWarning,0825.0,5.00,000.00,022.2,021.3,000.0,030.6,023.9,05.7,0000.0,0009.14,0002.63,0000.96
2024-02-25 01:11:00,SystemResetWarning,0825.1,4.99,000.00,022.2,021.3,000.0,030.6,023.9,05.7,0000.0,0008.93,0002.57,0000.95
2024-02-25 01:12:00,SystemResetWarning,0825.3,4.99,000.00,022.2,021.3,000.0,030.6,023.9,06.0,0000.0,0008.59,0002.41,0000.92
2024-02-25 01:13:00,SystemResetWarning,0825.2,5.00,000.00,022.2,021.3,000.0,030.6,023.9,05.9,0000.0,0008.91,0002.38,0000.91
2024-02-25 01:14:00,SystemResetWarning,0825.2,5.00,000.00,022.2,021.3,000.0,030.6,023.9,05.8,0000.0,0008.84,0002.35,0000.91
2024-02-25 01:15:00,SystemResetWarning,0825.2,5.00,000.00,022.2,021.3,000.0,030.6,023.9,05.7,0000.0,0008.81,0002.38,0000.92
2024-02-25 01:16:00,SystemResetWarning,0825.2,5.00,000.00,022.2,021.3,000.0,030.6,023.9,05.7,0000.0,0009.07,0002.42,0000.90
2024-02-25 01:17:00,SystemResetWarning,0825.2,5.00,000.00,022.1,021.3,000.0,030.6,023.9,05.6,0000.0,0009.30,0002.47,0000.91
2024-02-25 01:18:00,SystemResetWarning,0825.3,5.01,000.00,022.1,021.3,000.0,030.5,023.9,05.6,0000.0,0009.51,0002.48,0000.93
2024-02-25 01:19:00,SystemResetWarning,0825.3,5.01,000.00,022.1,021.3,000.0,030.5,023.9,05.7,0000.0,0010.20,0002.49,0000.93
2024-02-25 01:20:00,SystemResetWarning,0825.2,5.00,000.00,022.1,021.3,000.0,030.5,023.9,05.7,0000.0,0010.09,0002.54,0000.92
2024-02-25 01:21:00,SystemResetWarning,0825.2,5.00,000.00,022.1,021.2,000.0,030.5,023.8,05.7,0000.0,0009.43,0002.57,0000.93
2024-02-25 01:22:00,SystemResetWarning,0825.3,5.00,000.00,022.1,021.2,000.0,030.5,023.9,05.8,0000.0,0009.32,0002.59,0000.93
2024-02-25 01:23:00,SystemResetWarning,0825.4,5.00,000.00,022.1,021.2,000.0,030.5,023.8,05.8,0000.0,0009.28,0002.71,0000.94
2024-02-25 01:24:00,SystemResetWarning,0825.3,5.00,000.00,022.1,021.2,000.0,030.5,023.9,05.8,0000.0,0009.09,0002.81,0000.95
2024-02-25 01:25:00,SystemResetWarning,0825.2,5.00,000.00,022.1,021.2,000.0,030.5,023.9,05.9,0000.0,0009.23,0002.91,0000.95
2024-02-25 01:26:00,SystemResetWarning,0825.4,5.00,000.00,022.1,021.2,000.0,030.5,023.9,06.0,0000.0,0009.64,0002.95,0000.95
2024-02-25 01:27:00,SystemResetWarning,0825.3,4.99,000.00,022.1,021.2,000.0,030.5,023.8,06.0,0000.0,0009.90,0002.94,0000.96
2024-02-25 01:28:00,SystemResetWarning,0825.3,5.00,000.00,022.1,021.2,000.0,030.5,023.8,06.0,0000.0,0010.29,0002.84,0000.94
2024-02-25 01:29:00,SystemResetWarning,0825.5,5.00,000.00,022.1,021.2,000.0,030.5,023.8,06.1,0000.0,0010.45,0002.91,0000.94
2024-02-25 01:30:00,SystemResetWarning,0825.4,4.99,000.00,022.1,021.2,000.0,030.5,023.8,06.2,0000.0,0009.63,0002.96,0000.94
2024-02-25 01:31:00,SystemResetWarning,0825.3,5.00,000.00,022.1,021.2,000.0,030.5,023.8,06.2,0000.0,0009.66,0002.87,0000.94
2024-02-25 01:32:00,SystemResetWarning,0825.3,5.00,000.00,022.1,021.2,000.0,030.5,023.8,06.2,0000.0,0009.85,0002.93,0000.94
2024-02-25 01:33:00,SystemResetWarning,0825.4,5.00,000.00,022.1,021.3,000.0,030.5,023.8,06.2,0000.0,0010.27,0002.99,0000.94
2024-02-25 01:34:00,SystemResetWarning,0825.4,5.00,000.00,022.1,021.3,000.0,030.5,023.9,06.2,0000.0,0010.49,0002.98,0000.94
2024-02-25 01:35:00,SystemResetWarning,0825.4,5.00,000.00,022.1,021.3,000.0,030.5,023.9,06.1,0000.0,0010.61,0003.10,0000.94
2024-02-25 01:36:00,SystemResetWarning,0825.4,5.00,000.00,022.1,021.3,000.0,030.5,023.9,06.1,0000.0,0010.68,0003.10,0000.96
2024-02-25 01:37:00,SystemResetWarning,0825.3,5.01,000.00,022.1,021.3,000.0,030.5,023.9,06.0,0000.0,0010.44,0003.13,0000.95
2024-02-25 01:38:00,SystemResetWarning,0825.2,4.99,000.00,022.1,021.3,000.0,030.5,023.9,05.9,0000.0,0010.36,0003.14,0000.95
2024-02-25 01:39:00,SystemResetWarning,0825.2,4.99,000.00,022.1,021.3,000.0,030.5,023.9,05.8,0000.0,0010.28,0003.15,0000.96
2024-02-25 01:40:00,SystemResetWarning,0825.3,5.00,000.00,022.1,021.3,000.0,030.5,023.9,05.8,0000.0,0010.00,0003.06,0000.96
2024-02-25 01:41:00,SystemResetWarning,0825.4,5.02,000.00,022.1,021.3,000.0,030.5,023.9,05.6,0000.0,0009.87,0003.01,0000.98
2024-02-25 01:42:00,SystemResetWarning,0825.6,4.99,000.00,022.1,021.3,000.0,030.5,023.9,05.6,0000.0,0009.63,0003.09,0000.98
2024-02-25 01:43:00,SystemResetWarning,0825.6,4.99,000.00,022.1,021.3,000.0,030.5,023.9,05.9,0000.0,0009.08,0003.00,0000.98
2024-02-25 01:44:00,SystemResetWarning,0825.5,5.00,000.00,022.1,021.3,000.0,030.5,024.0,05.9,0000.0,0008.66,0002.91,0000.97
2024-02-25 01:45:00,SystemResetWarning,0825.4,5.01,000.00,022.2,021.4,000.0,030.5,023.9,05.9,0000.0,0008.52,0002.89,0000.98
2024-02-25 01:46:00,SystemResetWarning,0825.6,5.00,000.00,022.2,021.4,000.0,030.5,024.0,06.1,0000.0,0008.42,0002.76,0000.98
2024-02-25 01:47:00,SystemResetWarning,0825.6,5.01,000.00,022.2,021.4,000.0,030.5,024.0,06.3,0000.0,0008.40,0002.72,0000.97
2024-02-25 01:48:00,SystemResetWarning,0825.8,5.00,000.00,022.2,021.4,000.0,030.5,024.0,06.1,0000.0,0008.17,0002.66,0000.98
2024-02-25 01:49:00,SystemResetWarning,0825.9,5.00,000.00,022.2,021.4,000.0,030.5,024.0,06.0,0000.0,0007.91,0002.57,0001.00
2024-02-25 01:50:00,SystemResetWarning,0825.9,5.00,000.00,022.2,021.4,000.0,030.5,024.0,06.1,0000.0,0007.65,0002.58,0000.99
2024-02-25 01:51:00,SystemResetWarning,0825.8,4.99,000.00,022.2,021.4,000.0,030.5,024.0,05.9,0000.0,0008.02,0002.67,0001.00
2024-02-25 01:52:00,SystemResetWarning,0825.7,5.00,000.00,022.2,021.4,000.0,030.5,024.0,05.9,0000.0,0008.27,0002.66,0000.99
2024-02-25 01:53:00,SystemResetWarning,0825.6,5.00,000.00,022.2,021.4,000.0,030.6,024.0,05.9,0000.0,0008.93,0002.65,0000.98
2024-02-25 01:54:00,SystemResetWarning,0825.4,5.00,000.00,022.2,021.4,000.0,030.6,024.0,06.0,0000.0,0009.80,0002.75,0000.99
2024-02-25 01:55:00,SystemResetWarning,0825.6,5.00,000.00,022.3,021.4,000.0,030.6,024.0,05.9,0000.0,0010.22,0002.78,0000.99
2024-02-25 01:56:00,SystemResetWarning,0825.6,5.00,000.00,022.3,021.4,000.0,030.6,024.0,06.0,0000.0,0010.17,0002.82,0001.02
2024-02-25 01:57:00,SystemResetWarning,0825.6,5.00,000.00,022.3,021.4,000.0,030.6,024.0,06.0,0000.0,0010.62,0002.91,0001.04
2024-02-25 01:58:00,SystemResetWarning,0825.5,5.00,000.00,022.3,021.5,000.0,030.6,024.0,06.1,0000.0,0010.82,0002.93,0001.05
2024-02-25 01:59:00,SystemResetWarning,0825.5,5.00,000.00,022.3,021.5,000.0,030.6,024.0,06.1,0000.0,0010.88,0002.91,0001.05
